STARLINK-35837 (66840 NORAD) Tracking and Keplerian Element Data

This shows tracking and keplerian element data for the satellite.

Feedback or suggestion? Click here.




ElementValue
Catalog66840
NameSTARLINK-35837
Epoch Orbit410
Epoch Day354.25003472
Epoch Year2025
RAAN177.8029
Inclination69.9994
Eccentricity0.0002888
Argument of Perigee267.7217
Mean Anonmoly339.216
Mean Motion15.52493718
Decay Rate0.00034927
L11 66840U 25280V 25354.25003472 .00034927 00000+0 56849-3 0 9992
L22 66840 69.9994 177.8029 0002888 267.7217 339.2160 15.52493718 4108



Live tracking and technical data element details for STARLINK-35837 (NORAD 66840). STARLINK-35837 can be tracked NOW for your location showing map with azimuth and elevation plus other details from your city location.







IsCatalogInMostPopularTable: catalog: 66840, numindb: 12
Update: records affected: 1



GetName: 66840 STARLINK-35837

Hit Count: updated at: Mon, 09 Feb 2026 09:30:50 GMT